Погода в Прохладном

Россия / Краснодарский край     44°42′52″N   40°41′56″E
темп.,
°C
ветер,
м/с
пор.,
м/с
влажн.,
%
обл.,
%
осадки,
мм/ч
давл.,
гПа
погр.,
м
19 сентября, вс
вс1900:00+17юв3467100 0.0 101352
03:00+16юв3475100 0.0 101361
06:00+15ююв237898 0.0 101339
09:00+20ююв225768 0.0 1012340
12:00+26ссв01426 0.0 10111022
15:00+26сз4339100 0.0 10111913
18:00+20з2365100 0.0 1012103
21:00+19з2267100 0.1 101238
20 сентября, пн
пн2000:00+18ююз117880 0.3 101311
03:00+15ююв2284100 0.3 101330
06:00+14ююв228370 0.0 101314
09:00+18ююв226872 0.0 1014156
12:00+23зюз2549100 0.1 10141198
15:00+25з693673 0.1 10131968
18:00+21зсз511464 0.0 1013314
21:00+17ю346172 0.0 101546
21 сентября, вт
вт2100:00+16ю336242 0.0 101551
03:00+15ююв2363100 0.0 101437
06:00+15вюв2268100 0.0 101420
09:00+20вюв3458100 0.0 1013384
12:00+26вюв343881 0.0 10101050
15:00+23з111153100 0.2 1010967
18:00+16зсз3590100 0.9 1012358
21:00+15зсз6893100 1.1 1015674
22 сентября, ср
ср2200:00+13зсз4791100 0.3 1016498
03:00+13зсз4788100 0.4 1016602
06:00+11зсз3680100 0.0 1017542
09:00+11зсз2374100 0.1 1017517
12:00+14з1262100 0.0 10161098
15:00+15ю1259100 0.0 10161024
18:00+14юв1162100 0.0 101642
21:00+13ююв1268100 0.0 101654
23 сентября, чт
чт2300:00+13вюв227098 0.0 101585
03:00+12в2571100 0.0 1014215
06:00+12в497085 0.0 1013450
09:00+15в6864100 0.0 1011745
12:00+18в5656100 0.0 10091374
15:00+15зюз2472100 0.1 1009498
18:00+12ссз4688100 0.5 1010297
21:00+12ссв5890100 2.4 1009420